�N����,����,�~����,�C��,���x,�C��,����,���ϕ���,�ő�u�ԕ���,�ő厞����,���˗�,�I�_���x,�n�����x,�ő啗���N��,DTYPE
"19/05/28","00:10",0.0,22.9,64.9,1004.8,4.5,0.7,1.8,46.2,0.00,16.0,21.5,"00:05:32",1
"19/05/28","00:20",0.0,22.9,65.6,1004.5,229.8,1.3,3.1,237.6,0.00,16.2,21.4,"00:12:16",1
"19/05/28","00:30",0.0,22.9,65.7,1004.3,247.1,0.7,2.1,246.2,0.00,16.2,21.5,"00:22:00",1
"19/05/28","00:40",0.0,22.9,66.2,1004.5,276.9,1.2,2.5,241.4,0.00,16.3,21.5,"00:37:44",1
"19/05/28","00:50",0.0,22.9,66.3,1004.3,272.3,1.5,3.2,336.0,0.00,16.3,21.5,"00:40:02",1
"19/05/28","01:00",0.0,22.7,67.0,1004.1,258.9,1.0,3.3,342.3,0.00,16.3,21.2,"00:50:16",1
"19/05/28","01:10",0.0,22.7,67.5,1004.1,291.2,1.0,2.4,223.8,0.00,16.4,21.3,"01:09:44",1
"19/05/28","01:20",0.0,22.6,67.9,1003.8,242.7,0.8,1.9,330.6,0.00,16.4,21.4,"01:17:12",1
"19/05/28","01:30",0.0,22.4,69.0,1004.1,322.8,1.1,2.0,324.3,0.00,16.5,21.3,"01:24:24",1
"19/05/28","01:40",0.0,22.4,69.9,1004.1,314.1,0.8,2.0,335.0,0.00,16.7,21.4,"01:31:04",1
"19/05/28","01:50",0.0,22.3,70.7,1003.8,333.6,0.8,1.4,344.4,0.00,16.8,21.4,"01:40:08",1
"19/05/28","02:00",0.0,22.1,72.4,1004.1,334.9,1.1,2.1,339.3,0.00,16.9,21.2,"01:56:48",1
"19/05/28","02:10",0.0,22.4,71.6,1003.6,342.6,1.5,3.6,334.4,0.00,17.1,21.1,"02:05:12",1
"19/05/28","02:20",0.0,22.5,70.9,1003.6,316.0,1.2,2.7,338.4,0.00,17.0,21.2,"02:10:16",1
"19/05/28","02:30",0.0,22.6,70.5,1003.6,281.0,1.6,2.9,318.9,0.00,17.0,21.0,"02:25:20",1
"19/05/28","02:40",0.0,22.6,71.2,1004.1,271.5,1.0,2.2,253.1,0.00,17.2,20.9,"02:37:36",1
"19/05/28","02:50",0.0,22.7,70.8,1004.1,281.1,1.5,3.4,325.9,0.00,17.2,21.3,"02:43:36",1
"19/05/28","03:00",0.0,22.6,71.0,1004.1,303.9,1.1,2.6,315.5,0.00,17.1,21.0,"02:51:52",1
"19/05/28","03:10",0.0,22.7,71.5,1004.1,271.4,1.6,3.5,314.1,0.00,17.3,21.2,"03:03:04",1
"19/05/28","03:20",0.0,22.8,71.5,1003.8,257.6,1.7,3.5,190.7,0.00,17.4,21.1,"03:18:08",1
"19/05/28","03:30",0.0,22.8,70.9,1003.6,255.5,1.0,3.2,194.8,0.00,17.3,21.1,"03:20:56",1
"19/05/28","03:40",0.0,22.7,71.2,1003.8,294.6,1.1,2.4,269.3,0.00,17.3,20.9,"03:39:36",1
"19/05/28","03:50",0.0,22.7,71.2,1003.8,282.2,0.8,3.1,320.9,0.00,17.3,21.1,"03:42:08",1
"19/05/28","04:00",0.0,22.6,71.5,1003.6,292.3,1.0,1.9,232.0,0.00,17.2,21.0,"03:50:32",1
"19/05/28","04:10",0.0,22.6,72.5,1003.6,284.6,1.3,2.7,236.2,0.00,17.4,21.2,"04:09:36",1
"19/05/28","04:20",0.0,22.7,72.1,1003.6,284.6,1.2,2.1,327.0,0.00,17.5,21.1,"04:19:20",1
"19/05/28","04:30",0.0,22.6,72.4,1003.6,294.6,1.2,2.7,323.2,0.00,17.4,21.1,"04:22:16",1
"19/05/28","04:40",0.0,22.6,72.5,1003.1,293.6,1.2,2.2,311.6,0.00,17.4,21.1,"04:34:56",1
"19/05/28","04:50",0.0,22.6,73.1,1003.4,253.4,1.6,3.6,230.7,0.00,17.6,20.9,"04:44:40",1
"19/05/28","05:00",0.0,22.6,73.1,1003.4,257.0,1.5,3.6,238.0,0.00,17.6,21.0,"04:57:28",1
"19/05/28","05:10",0.0,22.5,73.4,1003.4,249.2,1.6,4.5,228.8,0.00,17.5,20.9,"05:08:16",1
"19/05/28","05:20",0.0,22.5,74.0,1003.8,271.2,1.7,3.6,256.8,0.00,17.7,20.9,"05:16:40",1
"19/05/28","05:30",0.0,22.4,74.5,1003.8,270.1,2.0,5.6,209.6,0.00,17.7,21.0,"05:20:08",1
"19/05/28","05:40",0.0,22.4,75.0,1003.6,282.4,1.5,3.5,314.4,0.00,17.8,20.8,"05:36:08",1
"19/05/28","05:50",0.2,21.9,77.6,1004.1,254.0,1.6,3.2,222.8,0.00,17.9,20.8,"05:44:32",1
"19/05/28","06:00",0.8,21.4,80.0,1003.6,282.8,1.0,3.1,228.8,0.00,17.8,20.9,"05:51:04",1
"19/05/28","06:10",0.4,21.1,82.7,1004.1,336.4,0.8,1.4,320.0,0.00,18.1,20.9,"06:01:44",1
"19/05/28","06:20",0.0,21.0,84.7,1004.3,337.1,0.8,1.6,334.4,0.00,18.4,20.7,"06:17:52",1
"19/05/28","06:30",0.2,20.8,86.3,1004.1,294.0,0.7,1.8,336.3,0.00,18.5,20.9,"06:21:36",1
"19/05/28","06:40",0.0,20.7,87.1,1004.3,180.0,0.7,1.9,130.9,0.00,18.5,20.7,"06:36:56",1
"19/05/28","06:50",0.0,20.8,87.7,1004.1,174.6,0.8,2.0,135.2,0.01,18.7,20.8,"06:42:56",1
"19/05/28","07:00",0.0,20.7,88.1,1004.1,213.3,0.3,1.1,183.2,0.02,18.7,20.8,"06:59:36",1
"19/05/28","07:10",0.0,20.6,88.0,1003.8,172.6,0.6,1.2,180.8,0.02,18.6,21.0,"07:00:24",1
"19/05/28","07:20",0.0,20.7,88.3,1003.8,215.0,0.6,1.2,200.9,0.01,18.7,21.0,"07:17:52",1
"19/05/28","07:30",0.0,21.0,88.6,1004.3,282.1,0.5,1.1,210.0,0.02,19.1,20.8,"07:21:04",1
"19/05/28","07:40",0.2,21.2,88.7,1004.1,325.6,0.7,1.7,336.9,0.02,19.3,20.9,"07:30:02",1
"19/05/28","07:50",0.0,21.0,89.1,1004.5,332.9,1.2,1.7,333.0,0.01,19.2,20.9,"07:48:56",1
"19/05/28","08:00",0.2,20.9,89.9,1004.1,313.8,0.8,1.7,330.5,0.00,19.2,20.8,"07:50:16",1
"19/05/28","08:10",0.0,20.8,90.4,1004.3,303.1,0.6,1.7,343.4,0.00,19.2,20.8,"08:04:16",1
"19/05/28","08:20",0.2,20.6,90.8,1004.5,317.1,0.7,2.0,244.1,0.00,19.1,20.9,"08:14:24",1
"19/05/28","08:30",0.0,20.6,91.0,1004.3,218.6,0.7,2.1,226.8,0.00,19.1,20.7,"08:28:08",1
"19/05/28","08:40",0.0,19.9,90.6,1004.5,140.2,1.2,3.6,124.3,0.00,18.4,21.0,"08:36:08",1
"19/05/28","08:50",0.0,19.8,91.2,1004.8,156.1,1.5,2.9,137.3,0.00,18.4,20.8,"08:47:36",1
"19/05/28","09:00",0.2,19.5,91.2,1004.5,180.6,1.6,3.4,231.6,0.00,18.1,20.7,"08:57:52",1
"19/05/28","09:10",0.0,19.5,91.4,1005.0,167.1,1.3,2.5,156.7,0.00,18.1,20.9,"09:02:56",1
"19/05/28","09:20",0.4,19.4,91.6,1004.8,176.6,1.3,3.5,187.4,0.00,18.0,20.7,"09:12:56",1
"19/05/28","09:30",0.0,19.9,92.0,1004.5,131.3,0.8,1.8,132.1,0.06,18.6,20.9,"09:23:28",1
"19/05/28","09:40",0.0,19.9,91.8,1004.5,166.5,0.8,2.0,187.3,0.04,18.6,20.7,"09:33:52",1
"19/05/28","09:50",0.4,19.9,91.5,1004.5,146.2,0.5,1.1,159.5,0.04,18.5,20.7,"09:44:56",1
"19/05/28","10:00",0.2,19.9,91.7,1004.5,207.4,0.2,0.6,69.2,0.01,18.5,20.7,"09:58:16",1
"19/05/28","10:10",0.2,20.0,92.0,1004.5,320.9,0.7,1.2,324.0,0.00,18.7,20.8,"10:03:44",1
"19/05/28","10:20",0.6,19.9,92.1,1004.5,329.6,1.0,1.4,356.3,0.00,18.6,20.9,"10:15:12",1
"19/05/28","10:30",0.2,20.0,92.4,1004.3,121.9,0.6,2.1,32.8,0.01,18.8,20.8,"10:24:32",1
"19/05/28","10:40",0.0,19.9,92.4,1003.8,142.0,1.1,2.1,166.0,0.01,18.7,20.8,"10:38:40",1
"19/05/28","10:50",0.0,19.8,92.4,1003.8,158.1,1.6,3.1,149.2,0.01,18.6,20.6,"10:48:32",1
"19/05/28","11:00",0.2,19.8,92.6,1003.8,159.0,1.3,2.9,127.2,0.02,18.6,20.8,"10:50:24",1
"19/05/28","11:10",0.0,19.7,92.5,1003.8,156.4,1.0,2.2,151.8,0.03,18.5,20.8,"11:06:56",1
"19/05/28","11:20",0.0,19.7,92.4,1004.1,157.8,1.1,2.9,135.4,0.02,18.5,20.8,"11:16:08",1
"19/05/28","11:30",0.2,19.8,92.2,1003.6,157.8,1.0,1.9,152.6,0.01,18.5,20.8,"11:28:24",1
"19/05/28","11:40",0.0,19.8,92.3,1003.8,152.4,1.0,1.8,119.1,0.01,18.6,20.8,"11:34:16",1
"19/05/28","11:50",0.0,19.8,92.2,1003.6,145.3,0.7,1.8,180.3,0.03,18.5,20.7,"11:40:08",1
"19/05/28","12:00",0.0,19.8,91.8,1003.1,88.7,0.5,1.6,350.1,0.03,18.5,20.7,"11:56:48",1
"19/05/28","12:10",0.2,20.0,92.0,1003.6,182.6,0.5,1.6,179.2,0.03,18.7,20.6,"12:02:56",1
"19/05/28","12:20",0.0,19.7,91.4,1003.4,222.4,1.0,2.2,236.9,0.04,18.3,20.5,"12:16:24",1
"19/05/28","12:30",0.0,19.9,91.8,1003.4,244.5,0.7,1.6,237.3,0.05,18.6,20.8,"12:21:28",1
"19/05/28","12:40",0.2,19.7,91.1,1003.1,211.6,0.7,1.2,212.9,0.03,18.2,20.7,"12:35:04",1
"19/05/28","12:50",0.0,19.7,91.3,1003.4,200.5,0.5,1.4,223.3,0.02,18.3,20.7,"12:43:04",1
"19/05/28","13:00",0.2,19.4,90.9,1003.4,264.8,0.7,1.8,201.8,0.03,17.9,20.7,"12:54:48",1
"19/05/28","13:10",0.2,19.5,91.6,1003.1,196.2,0.6,1.9,230.0,0.03,18.1,20.7,"13:02:16",1
"19/05/28","13:20",0.4,19.6,91.4,1002.6,53.8,0.3,1.0,343.2,0.05,18.2,21.0,"13:10:02",1
"19/05/28","13:30",0.2,19.6,91.5,1002.9,355.6,0.6,1.4,346.2,0.04,18.2,20.9,"13:23:52",1
"19/05/28","13:40",0.2,19.4,91.5,1002.6,54.8,0.5,1.0,133.4,0.04,18.0,20.6,"13:35:36",1
"19/05/28","13:50",0.6,19.1,91.9,1002.9,14.4,0.5,1.6,359.5,0.03,17.8,20.8,"13:48:16",1
"19/05/28","14:00",0.4,19.2,92.2,1002.9,351.1,0.7,1.4,5.6,0.02,17.9,20.7,"13:54:32",1
"19/05/28","14:10",0.4,19.1,92.6,1002.9,354.8,0.6,1.3,342.9,0.04,17.9,20.8,"14:04:24",1
"19/05/28","14:20",0.6,19.2,93.1,1002.9,343.7,0.7,1.4,335.7,0.03,18.1,20.7,"14:12:16",1
"19/05/28","14:30",0.4,19.1,93.2,1002.6,328.9,1.0,1.6,336.1,0.03,18.0,20.9,"14:23:12",1
"19/05/28","14:40",0.2,19.0,93.1,1002.4,283.8,0.8,1.3,345.8,0.01,17.9,20.7,"14:30:24",1
"19/05/28","14:50",0.2,19.2,93.5,1002.6,347.3,0.5,1.6,28.6,0.01,18.2,20.7,"14:48:30",1
"19/05/28","15:00",0.4,19.2,93.5,1002.2,83.2,0.5,1.3,61.1,0.00,18.2,20.7,"14:54:34",1
"19/05/28","15:10",0.2,19.2,93.5,1001.9,98.6,0.5,1.3,122.3,0.00,18.2,20.6,"15:05:38",1
"19/05/28","15:20",0.2,19.2,94.1,1001.9,80.0,0.5,1.4,98.6,0.01,18.3,20.7,"15:14:32",1
"19/05/28","15:30",0.2,19.1,93.9,1001.7,328.9,0.7,1.4,341.7,0.01,18.1,20.8,"15:22:16",1
"19/05/28","15:40",0.0,19.1,94.2,1001.5,276.3,0.7,1.4,337.4,0.00,18.2,20.7,"15:39:12",1
"19/05/28","15:50",0.2,19.2,94.2,1001.0,258.7,0.5,1.0,309.9,0.00,18.3,20.6,"15:47:36",1
"19/05/28","16:00",0.4,19.1,94.2,1001.5,263.0,0.7,1.4,250.2,0.00,18.2,20.5,"15:56:00",1
"19/05/28","16:10",1.2,19.1,94.6,1001.2,268.6,0.6,1.4,228.3,0.00,18.3,20.7,"16:09:44",1
"19/05/28","16:20",1.0,19.1,94.7,1001.5,279.0,0.7,1.3,255.6,0.00,18.3,20.6,"16:10:40",1
"19/05/28","16:30",0.0,19.1,94.8,1001.2,269.3,0.6,1.1,243.3,0.00,18.3,20.6,"16:25:52",1
"19/05/28","16:40",0.0,19.1,94.8,1001.2,291.8,0.5,1.0,236.8,0.00,18.3,20.7,"16:38:48",1
"19/05/28","16:50",0.6,19.2,94.9,1001.0,268.2,0.6,1.2,250.1,0.00,18.4,20.6,"16:40:40",1
"19/05/28","17:00",0.4,19.2,94.8,1001.0,305.5,0.6,1.1,338.5,0.00,18.4,20.4,"16:56:48",1
"19/05/28","17:10",0.0,19.1,95.0,1001.0,283.7,0.5,1.0,270.6,0.00,18.3,20.5,"17:00:02",1
"19/05/28","17:20",0.0,19.1,95.1,1001.0,292.1,0.7,1.1,312.5,0.00,18.3,20.6,"17:15:20",1
"19/05/28","17:30",0.2,19.2,95.3,1000.8,278.4,0.5,1.1,265.4,0.00,18.5,20.3,"17:22:40",1
"19/05/28","17:40",0.0,19.2,95.4,1000.8,276.8,0.6,1.0,247.7,0.00,18.5,20.5,"17:34:24",1
"19/05/28","17:50",0.2,19.2,95.4,1000.8,310.3,0.6,1.0,318.4,0.00,18.5,20.5,"17:42:32",1
"19/05/28","18:00",0.0,19.2,95.4,1000.8,308.9,0.8,1.4,332.4,0.00,18.5,20.4,"17:57:12",1
"19/05/28","18:10",0.4,19.2,95.4,1001.0,274.5,0.6,1.2,322.4,0.00,18.5,20.4,"18:00:16",1
"19/05/28","18:20",0.4,19.3,95.5,1000.5,252.1,0.7,1.4,220.2,0.00,18.6,20.5,"18:18:48",1
"19/05/28","18:30",0.2,19.2,95.6,1000.5,261.8,0.6,1.2,244.4,0.00,18.5,20.3,"18:20:08",1
"19/05/28","18:40",0.4,19.2,95.7,1000.8,283.8,0.8,1.3,325.7,0.00,18.5,20.3,"18:36:52",1
"19/05/28","18:50",1.2,19.1,95.7,1001.0,290.0,1.0,1.6,320.7,0.00,18.4,20.3,"18:41:42",1
"19/05/28","19:00",1.2,19.1,95.8,1001.0,280.3,0.7,1.1,264.2,0.00,18.5,20.3,"18:53:08",1
"19/05/28","19:10",1.0,19.0,95.9,1001.2,290.7,0.8,1.2,313.8,0.00,18.4,20.4,"19:03:18",1
"19/05/28","19:20",0.4,19.0,96.0,1001.0,316.0,0.6,0.8,308.6,0.00,18.4,20.1,"19:10:52",1
"19/05/28","19:30",0.2,19.0,96.0,1001.2,297.5,0.7,1.6,329.1,0.00,18.4,20.2,"19:22:48",1
"19/05/28","19:40",0.4,18.7,95.8,1001.5,278.9,1.0,2.5,341.0,0.00,18.1,20.5,"19:39:12",1
"19/05/28","19:50",0.0,17.9,96.0,1001.2,336.2,2.3,3.9,341.8,0.00,17.3,20.2,"19:48:42",1
"19/05/28","20:00",0.0,17.7,96.0,1001.7,330.8,2.2,4.2,333.3,0.00,17.1,20.2,"19:57:22",1
"19/05/28","20:10",0.4,17.6,96.2,1001.7,333.1,2.2,5.0,342.7,0.00,17.0,20.2,"20:01:20",1
"19/05/28","20:20",0.0,17.2,96.0,1001.7,330.9,3.1,7.1,345.7,0.00,16.6,20.2,"20:18:46",1
"19/05/28","20:30",1.0,17.1,96.0,1001.5,328.2,2.8,5.9,346.3,0.00,16.5,20.1,"20:24:40",1
"19/05/28","20:40",1.4,16.9,96.0,1001.7,330.0,3.2,6.2,349.7,0.00,16.3,19.9,"20:37:48",1
"19/05/28","20:50",1.4,16.8,96.0,1001.7,325.5,3.1,5.2,327.6,0.00,16.2,20.0,"20:45:46",1
"19/05/28","21:00",0.6,16.7,96.0,1001.7,329.0,3.4,6.3,321.8,0.00,16.1,19.7,"20:57:24",1
"19/05/28","21:10",0.2,16.7,96.0,1001.9,318.4,2.3,5.8,327.5,0.00,16.1,19.6,"21:06:30",1
"19/05/28","21:20",0.0,16.8,95.9,1001.9,325.4,3.0,5.9,326.2,0.00,16.2,19.8,"21:10:34",1
"19/05/28","21:30",0.0,16.9,95.9,1001.7,301.2,1.3,2.9,335.8,0.00,16.3,19.5,"21:20:40",1
"19/05/28","21:40",0.0,16.8,95.7,1001.9,316.9,1.7,3.1,322.0,0.00,16.1,19.7,"21:34:16",1
"19/05/28","21:50",0.0,16.9,95.7,1001.9,327.8,2.1,3.9,333.7,0.00,16.2,19.7,"21:40:40",1
"19/05/28","22:00",0.0,16.9,95.6,1001.9,288.5,1.3,3.4,311.1,0.00,16.2,19.5,"21:51:44",1
"19/05/28","22:10",0.0,16.8,95.4,1001.7,320.3,2.7,4.5,327.8,0.00,16.1,19.4,"22:04:08",1
"19/05/28","22:20",0.0,17.0,95.4,1001.7,296.7,1.2,2.8,326.3,0.00,16.3,19.6,"22:11:28",1
"19/05/28","22:30",0.0,17.1,95.4,1001.7,265.8,0.8,1.6,246.6,0.00,16.4,19.3,"22:26:56",1
"19/05/28","22:40",0.0,17.0,95.2,1001.9,299.9,0.8,2.1,338.9,0.00,16.3,19.3,"22:38:48",1
"19/05/28","22:50",0.0,17.1,95.3,1001.9,326.7,1.2,2.0,323.3,0.00,16.4,19.4,"22:45:04",1
"19/05/28","23:00",0.0,17.0,95.1,1001.9,318.8,1.0,1.7,343.1,0.00,16.3,19.4,"22:51:52",1
"19/05/28","23:10",0.0,16.9,95.3,1001.9,314.8,1.5,2.9,320.6,0.00,16.2,19.7,"23:09:12",1
"19/05/28","23:20",0.0,16.8,95.0,1001.5,321.1,1.8,2.7,334.4,0.00,16.0,19.5,"23:15:44",1
"19/05/28","23:30",0.0,16.7,95.1,1001.5,313.1,1.2,1.8,323.5,0.00,16.0,19.5,"23:29:20",1
"19/05/28","23:40",0.0,16.8,95.3,1001.7,331.4,1.5,2.7,322.1,0.00,16.1,19.5,"23:34:08",1
"19/05/28","23:50",0.0,16.7,95.1,1001.5,327.0,1.7,3.1,344.5,0.00,16.0,19.4,"23:44:00",1
"19/05/28","24:00",0.0,16.6,95.1,1001.2,315.8,1.3,2.2,315.4,0.00,15.9,19.2,"23:50:24",1
